| time (UTC) | temp F | wind direction | speed MPH | gust MPH | rain 1hr in | rain 24hr in | rain mn in | humidity % | barometer mb |
| 20260508063836 | 76 | 228 | 1.0 | 4.0 | 0.00 | 0.00 | 0.00 | 87 | 992.5 |
| 20260508062836 | 77 | 216 | 2.0 | 5.0 | 0.00 | 0.00 | 0.00 | 87 | 992.6 |
| 20260508061835 | 77 | 220 | 2.0 | 4.0 | 0.00 | 0.00 | 0.00 | 86 | 992.9 |
| 20260508060835 | 77 | 250 | 2.0 | 5.0 | 0.00 | 0.00 | 0.00 | 86 | 993.1 |
| 20260508060319 | 77 | 273 | 2.0 | 5.0 | 0.00 | 0.00 | 0.00 | 85 | 992.8 |
| 20260508054834 | 77 | 202 | 2.0 | 6.0 | 0.00 | 0.00 | 0.00 | 85 | 993.2 |
| 20260508053834 | 77 | 338 | 2.0 | 4.0 | 0.00 | 0.00 | 0.00 | 84 | 993.3 |
| 20260508052834 | 77 | 251 | 1.0 | 4.0 | 0.00 | 0.00 | 0.00 | 84 | 993.1 |
| 20260508051831 | 77 | 225 | 1.0 | 4.0 | 0.00 | 0.00 | 0.00 | 84 | 992.9 |
| 20260508050832 | 77 | 214 | 1.0 | 5.0 | 0.00 | 0.00 | 0.00 | 83 | 992.8 |
| 20260508045831 | 78 | 211 | 2.0 | 6.0 | 0.00 | 0.00 | 0.00 | 83 | 993.1 |
| 20260508044826 | 78 | 223 | 2.0 | 6.0 | 0.00 | 0.00 | 0.00 | 82 | 993.3 |
| 20260508043826 | 78 | 226 | 2.0 | 6.0 | 0.00 | 0.00 | 0.00 | 81 | 993.2 |
| 20260508042827 | 78 | 241 | 2.0 | 7.0 | 0.00 | 0.00 | 0.00 | 81 | 994.1 |
| 20260508042319 | 79 | 346 | 2.0 | 8.0 | 0.00 | 0.00 | 0.00 | 80 | 993.9 |
| 20260508040826 | 79 | 139 | 2.0 | 6.0 | 0.00 | 0.00 | 0.00 | 79 | 993.6 |
| 20260508035827 | 79 | 207 | 2.0 | 7.0 | 0.00 | 0.00 | 0.00 | 78 | 993.5 |
| 20260508034828 | 80 | 230 | 1.0 | 4.0 | 0.00 | 0.00 | 0.00 | 76 | 993.2 |
| 20260508033825 | 80 | 202 | 2.0 | 7.0 | 0.00 | 0.00 | 0.00 | 76 | 993.9 |
| 20260508032822 | 80 | 27 | 2.0 | 5.0 | 0.00 | 0.00 | 0.00 | 75 | 993.9 |
| 20260508031822 | 80 | 35 | 2.0 | 5.0 | 0.00 | 0.00 | 0.00 | 74 | 993.4 |
| 20260508030822 | 80 | 185 | 2.0 | 8.0 | 0.00 | 0.00 | 0.00 | 73 | 993.6 |
| 20260508025822 | 80 | 268 | 2.0 | 6.0 | 0.00 | 0.00 | 0.00 | 72 | 993.7 |
| 20260508024822 | 81 | 256 | 2.0 | 7.0 | 0.00 | 0.00 | 0.00 | 71 | 993.6 |
| 20260508023822 | 81 | 217 | 2.0 | 8.0 | 0.00 | 0.00 | 0.00 | 70 | 993.6 |
| 20260508022820 | 81 | 299 | 2.0 | 6.0 | 0.00 | 0.00 | 0.00 | 70 | 993.5 |
| 20260508021817 | 81 | 237 | 2.0 | 6.0 | 0.00 | 0.00 | 0.00 | 70 | 993.5 |
| 20260508020816 | 82 | 246 | 2.0 | 5.0 | 0.00 | 0.00 | 0.00 | 68 | 993.5 |
| 20260508015816 | 82 | 209 | 2.0 | 4.0 | 0.00 | 0.00 | 0.00 | 67 | 993.6 |
| 20260508014816 | 82 | 320 | 2.0 | 5.0 | 0.00 | 0.00 | 0.00 | 66 | 993.7 |
| 20260508014312 | 82 | 166 | 2.0 | 7.0 | 0.00 | 0.00 | 0.00 | 64 | 994.0 |
| 20260508013256 | 83 | 269 | 2.0 | 5.0 | 0.00 | 0.00 | 0.00 | 64 | 994.0 |
| 20260508011817 | 83 | 273 | 1.0 | 4.0 | 0.00 | 0.00 | 0.00 | 63 | 993.6 |
| 20260508010827 | 83 | 246 | 1.0 | 5.0 | 0.00 | 0.00 | 0.00 | 63 | 992.8 |
| 20260508005812 | 83 | 202 | 1.0 | 3.0 | 0.00 | 0.00 | 0.00 | 61 | 993.1 |
| 20260508004811 | 84 | 235 | 2.0 | 5.0 | 0.00 | 0.00 | 0.00 | 59 | 993.2 |
| 20260508004258 | 84 | 323 | 1.0 | 3.0 | 0.00 | 0.00 | 0.00 | 57 | 993.5 |
| 20260508002812 | 85 | 240 | 1.0 | 4.0 | 0.00 | 0.00 | 0.00 | 56 | 993.7 |
| 20260508001815 | 85 | 203 | 2.0 | 6.0 | 0.00 | 0.00 | 0.00 | 55 | 993.7 |
| 20260508001335 | 85 | 267 | 2.0 | 5.0 | 0.00 | 0.00 | 0.00 | 55 | 994.0 |
| 20260508000250 | 86 | 188 | 1.0 | 5.0 | 0.00 | 0.00 | 0.00 | 54 | 994.3 |
| 20260507234811 | 86 | 263 | 2.0 | 6.0 | 0.00 | 0.00 | 0.00 | 52 | 994.7 |
| 20260507234250 | 86 | 249 | 2.0 | 7.0 | 0.00 | 0.00 | 0.00 | 52 | 994.7 |
| 20260507232811 | 87 | 270 | 2.0 | 4.0 | 0.00 | 0.00 | 0.00 | 52 | 994.8 |
| 20260507231811 | 87 | 296 | 2.0 | 6.0 | 0.00 | 0.00 | 0.00 | 48 | 995.0 |
| 20260507230811 | 87 | 189 | 3.0 | 7.0 | 0.00 | 0.00 | 0.00 | 47 | 995.0 |
| 20260507225811 | 87 | 227 | 3.0 | 7.0 | 0.00 | 0.00 | 0.00 | 47 | 994.6 |
| 20260507224811 | 88 | 218 | 4.0 | 9.0 | 0.00 | 0.00 | 0.00 | 46 | 994.9 |
| 20260507224249 | 88 | 222 | 4.0 | 11.0 | 0.00 | 0.00 | 0.00 | 48 | 995.2 |
| 20260507221804 | 88 | 19 | 3.0 | 9.0 | 0.00 | 0.00 | 0.00 | 50 | 996.9 |
| 20260507220815 | 89 | 228 | 3.0 | 8.0 | 0.00 | 0.00 | 0.00 | 50 | 997.3 |
| 20260507215801 | 88 | 270 | 3.0 | 8.0 | 0.00 | 0.00 | 0.00 | 50 | 999.5 |
| 20260507214802 | 87 | 207 | 4.0 | 11.0 | 0.00 | 0.00 | 0.00 | 51 | 999.9 |
| 20260507213803 | 87 | 229 | 3.0 | 8.0 | 0.00 | 0.00 | 0.00 | 52 | 997.5 |
| 20260507213236 | 86 | 32 | 3.0 | 8.0 | 0.00 | 0.00 | 0.00 | 52 | 997.3 |
| 20260507211802 | 85 | 316 | 4.0 | 9.0 | 0.00 | 0.00 | 0.00 | 56 | 996.6 |
| 20260507210814 | 85 | 199 | 5.0 | 10.0 | 0.00 | 0.00 | 0.00 | 57 | 994.9 |
| 20260507205801 | 85 | 206 | 4.0 | 10.0 | 0.00 | 0.00 | 0.00 | 58 | 995.3 |
| 20260507204801 | 85 | 283 | 3.0 | 10.0 | 0.00 | 0.00 | 0.00 | 56 | 995.7 |
| 20260507203801 | 84 | 237 | 4.0 | 8.0 | 0.00 | 0.00 | 0.00 | 56 | 995.3 |
| 20260507202801 | 84 | 226 | 4.0 | 9.0 | 0.00 | 0.00 | 0.00 | 56 | 995.3 |
| 20260507201801 | 84 | 1 | 3.0 | 8.0 | 0.00 | 0.00 | 0.00 | 58 | 995.2 |
| 20260507200757 | 84 | 225 | 3.0 | 8.0 | 0.00 | 0.00 | 0.00 | 60 | 995.3 |
| 20260507195757 | 85 | 224 | 3.0 | 9.0 | 0.00 | 0.00 | 0.00 | 59 | 996.0 |
| 20260507194757 | 85 | 209 | 4.0 | 10.0 | 0.00 | 0.00 | 0.00 | 58 | 996.0 |
| 20260507193754 | 85 | 321 | 4.0 | 12.0 | 0.00 | 0.00 | 0.00 | 58 | 996.5 |
| 20260507192755 | 86 | 217 | 4.0 | 8.0 | 0.00 | 0.00 | 0.00 | 57 | 997.7 |
| 20260507191808 | 85 | 298 | 4.0 | 9.0 | 0.00 | 0.00 | 0.00 | 58 | 999.1 |
| 20260507190755 | 85 | 204 | 4.0 | 9.0 | 0.00 | 0.00 | 0.00 | 58 | 1000.7 |
| 20260507185756 | 85 | 250 | 3.0 | 8.0 | 0.00 | 0.00 | 0.00 | 60 | 1001.5 |
| 20260507184752 | 85 | 250 | 4.0 | 9.0 | 0.00 | 0.00 | 0.00 | 59 | 999.5 |
| 20260507183753 | 86 | 214 | 3.0 | 8.0 | 0.00 | 0.00 | 0.00 | 58 | 1000.1 |
| 20260507182753 | 86 | 218 | 3.0 | 8.0 | 0.00 | 0.00 | 0.00 | 57 | 1003.3 |
| 20260507180806 | 86 | 219 | 3.0 | 11.0 | 0.00 | 0.00 | 0.00 | 56 | 1007.2 |
| 20260507175753 | 85 | 318 | 3.0 | 8.0 | 0.00 | 0.00 | 0.00 | 58 | 1005.5 |
| 20260507174236 | 85 | 262 | 2.0 | 6.0 | 0.00 | 0.00 | 0.00 | 58 | 998.3 |
| 20260507172752 | 87 | 15 | 2.0 | 5.0 | 0.00 | 0.00 | 0.00 | 55 | 999.5 |
| 20260507171752 | 87 | 216 | 3.0 | 9.0 | 0.00 | 0.00 | 0.00 | 47 | 1002.7 |
| 20260507170752 | 88 | 293 | 3.0 | 9.0 | 0.00 | 0.00 | 0.00 | 47 | 1005.6 |
| 20260507164752 | 88 | 236 | 3.0 | 9.0 | 0.00 | 0.00 | 0.00 | 46 | 1008.8 |
| 20260507163752 | 87 | 345 | 3.0 | 10.0 | 0.00 | 0.00 | 0.00 | 46 | 1007.4 |
| 20260507162752 | 87 | 232 | 3.0 | 8.0 | 0.00 | 0.00 | 0.00 | 47 | 1007.4 |
| 20260507161752 | 87 | 220 | 3.0 | 9.0 | 0.00 | 0.00 | 0.00 | 48 | 1006.5 |
| 20260507160752 | 87 | 309 | 4.0 | 8.0 | 0.00 | 0.00 | 0.00 | 51 | 1007.8 |
| 20260507155749 | 86 | 297 | 3.0 | 9.0 | 0.00 | 0.00 | 0.00 | 54 | 1007.8 |
| 20260507155232 | 86 | 270 | 3.0 | 8.0 | 0.00 | 0.00 | 0.00 | 54 | 1008.8 |
| 20260507154240 | 86 | 261 | 3.0 | 8.0 | 0.00 | 0.00 | 0.00 | 58 | 1007.9 |
| 20260507152748 | 85 | 352 | 3.0 | 8.0 | 0.00 | 0.00 | 0.00 | 60 | 1006.8 |
| 20260507151746 | 84 | 272 | 3.0 | 8.0 | 0.00 | 0.00 | 0.00 | 61 | 1006.9 |
| 20260507151228 | 84 | 247 | 2.0 | 7.0 | 0.00 | 0.00 | 0.00 | 63 | 1006.8 |
| 20260507145746 | 82 | 331 | 2.0 | 4.0 | 0.00 | 0.00 | 0.00 | 66 | 1002.9 |
| 20260507144746 | 82 | 170 | 3.0 | 7.0 | 0.00 | 0.00 | 0.00 | 67 | 1002.4 |
| 20260507143744 | 82 | 187 | 2.0 | 5.0 | 0.00 | 0.00 | 0.00 | 68 | 1003.6 |
| 20260507141742 | 80 | 215 | 2.0 | 6.0 | 0.00 | 0.00 | 0.00 | 71 | 1001.9 |
| 20260507140742 | 80 | 11 | 1.0 | 4.0 | 0.00 | 0.00 | 0.00 | 73 | 1003.5 |
| 20260507135742 | 79 | 154 | 1.0 | 4.0 | 0.00 | 0.00 | 0.00 | 73 | 1003.0 |
| 20260507134742 | 78 | 219 | 2.0 | 4.0 | 0.00 | 0.00 | 0.00 | 75 | 1001.9 |
| 20260507134234 | 78 | 25 | 2.0 | 4.0 | 0.00 | 0.00 | 0.00 | 75 | 1001.7 |
| 20260507132738 | 77 | 346 | 2.0 | 4.0 | 0.00 | 0.00 | 0.00 | 75 | 1000.2 |
| 20260507131735 | 76 | 53 | 1.0 | 3.0 | 0.00 | 0.00 | 0.00 | 77 | 1000.6 |
| 20260507130735 | 76 | 48 | 2.0 | 3.0 | 0.00 | 0.00 | 0.00 | 78 | 999.1 |
| 20260507125735 | 75 | 36 | 2.0 | 4.0 | 0.00 | 0.00 | 0.00 | 79 | 998.8 |
| 20260507124736 | 75 | 333 | 2.0 | 5.0 | 0.00 | 0.00 | 0.00 | 80 | 998.5 |
| 20260507124217 | 75 | 7 | 2.0 | 5.0 | 0.00 | 0.00 | 0.00 | 82 | 998.2 |
| 20260507122736 | 74 | 335 | 2.0 | 5.0 | 0.00 | 0.00 | 0.00 | 84 | 997.4 |
| 20260507121733 | 74 | 343 | 2.0 | 6.0 | 0.00 | 0.00 | 0.00 | 85 | 996.1 |
| 20260507120732 | 73 | 357 | 1.0 | 3.0 | 0.00 | 0.00 | 0.00 | 87 | 995.9 |
| 20260507120209 | 72 | 305 | 1.0 | 3.0 | 0.00 | 0.00 | 0.00 | 87 | 994.2 |
| 20260507114733 | 72 | 262 | 2.0 | 4.0 | 0.00 | 0.00 | 0.00 | 88 | 993.1 |
| 20260507113732 | 71 | 298 | 2.0 | 5.0 | 0.00 | 0.00 | 0.00 | 88 | 992.4 |
| 20260507113214 | 71 | 155 | 2.0 | 4.0 | 0.00 | 0.00 | 0.00 | 88 | 992.1 |
| 20260507111733 | 71 | 215 | 2.0 | 4.0 | 0.00 | 0.00 | 0.00 | 88 | 991.7 |
| 20260507110733 | 71 | 229 | 1.0 | 3.0 | 0.00 | 0.00 | 0.00 | 88 | 991.1 |
| 20260507105732 | 71 | 168 | 1.0 | 3.0 | 0.00 | 0.00 | 0.00 | 88 | 990.5 |
| 20260507104733 | 71 | 0 | 1.0 | 3.0 | 0.00 | 0.00 | 0.00 | 87 | 990.3 |
| 20260507103731 | 71 | 221 | 1.0 | 3.0 | 0.00 | 0.00 | 0.00 | 87 | 990.1 |
| 20260507102729 | 71 | 0 | 0.0 | 2.0 | 0.00 | 0.00 | 0.00 | 87 | 990.0 |
| 20260507101725 | 71 | 0 | 0.0 | 2.0 | 0.00 | 0.00 | 0.00 | 86 | 989.7 |
| 20260507100725 | 72 | 0 | 0.0 | 3.0 | 0.00 | 0.00 | 0.00 | 85 | 990.2 |
| 20260507095725 | 72 | 0 | 0.0 | 2.0 | 0.00 | 0.00 | 0.00 | 85 | 990.3 |
| 20260507094726 | 72 | 0 | 1.0 | 4.0 | 0.00 | 0.00 | 0.00 | 84 | 990.7 |
| 20260507093723 | 72 | 263 | 1.0 | 2.0 | 0.00 | 0.00 | 0.00 | 84 | 990.4 |
| 20260507092723 | 72 | 0 | 0.0 | 1.0 | 0.00 | 0.00 | 0.00 | 84 | 990.1 |
| 20260507091724 | 72 | 0 | 0.0 | 2.0 | 0.00 | 0.00 | 0.00 | 83 | 990.3 |
| 20260507090722 | 73 | 0 | 1.0 | 4.0 | 0.00 | 0.01 | 0.00 | 82 | 990.8 |
| 20260507090200 | 73 | 213 | 2.0 | 5.0 | 0.00 | 0.01 | 0.00 | 82 | 990.6 |
| 20260507084721 | 73 | 203 | 2.0 | 5.0 | 0.00 | 0.01 | 0.00 | 81 | 990.5 |
| 20260507083723 | 72 | 182 | 2.0 | 5.0 | 0.00 | 0.01 | 0.00 | 80 | 990.1 |
| 20260507082719 | 72 | 211 | 2.0 | 7.0 | 0.00 | 0.01 | 0.00 | 80 | 989.6 |
| 20260507081716 | 72 | 271 | 1.0 | 5.0 | 0.00 | 0.01 | 0.00 | 80 | 989.2 |
| 20260507080716 | 73 | 176 | 2.0 | 4.0 | 0.00 | 0.01 | 0.00 | 79 | 989.4 |
| 20260507075717 | 73 | 210 | 2.0 | 4.0 | 0.00 | 0.01 | 0.00 | 78 | 989.8 |
| 20260507074715 | 73 | 0 | 2.0 | 4.0 | 0.00 | 0.01 | 0.00 | 77 | 989.9 |
| 20260507073716 | 73 | 197 | 1.0 | 3.0 | 0.00 | 0.01 | 0.00 | 76 | 989.8 |
| 20260507072716 | 73 | 178 | 1.0 | 4.0 | 0.00 | 0.01 | 0.00 | 76 | 990.3 |
| 20260507071716 | 73 | 251 | 1.0 | 3.0 | 0.00 | 0.01 | 0.00 | 76 | 990.8 |
| 20260507070716 | 74 | 73 | 1.0 | 3.0 | 0.00 | 0.01 | 0.00 | 75 | 991.2 |
| 20260507065716 | 74 | 0 | 1.0 | 4.0 | 0.00 | 0.01 | 0.00 | 75 | 991.4 |